Tracking 31027 objects as of 19-Jul-2025
HD Live streaming from Space Station
objects crossing your sky now

CZ-6A DEB

Track CZ-6A DEB now!
10-day predictions


NORAD ID: 54347
Int'l Code: 2022-151CS
Perigee: 726.6 km
Apogee: 877.0 km
Inclination: 98.7 °
Period: 100.8 minutes
Semi major axis: 7172 km
RCS: Unknown
Launch date: November 11, 2022
Source: People's Republic of China (PRC)
Launch site: Taiyaun Space Center, China (TSC)

Note: This is SATELLITE DEBRIS
Your satellite tracking list
No more satellites can be added for tracking (max 5)
SPACE STATION
EYESAT-1
SAUDISAT 1C
FOX-1B (RADFXSAT AO-91)
DOSAAF-85 (RS-44)
Track 5 satellite(s)




NASA's NSSDC Master Catalog

Two Line Element Set (TLE):
1 54347U 22151CS  25199.31003844  .00000327  00000-0  13836-3 0  9999
2 54347  98.6862 217.0549 0104861 343.4159  16.3602 14.29124452139219
Source of the keplerian elements: AFSPC